COSMOS 2043

Satellite information

Favourite Embed

Satellite Type and Status

PAYLOADIN ORBIT

Key statistics

Satellite COSMOS 2043 at a glance.

Uptime

13194

Days in orbit

Revolutions

≈ 12.6

Per day

Orbit

LEO

Low Earth Orbit

Inclination

82.6

Latest

Satellite identification and parameters

Extended collection of information and parameters for COSMOS 2043.

Object identification

Identified? True

Debris? False

Object name: COSMOS 2043

International designator: 1989-074F

Object number (NORAD): 20237

Object ID (CCSDS): 20237

Country: COMMONWEALTH OF INDEPENDENT STATES (CIS)

Current information (Y/N): Y

RCS size: LARGE

Orbital parameters

Period: 113.965 minutes

Inclination: 82.5814 deg

SMA: 7786.491 km

Apoapsis: 1411.691 km

Periapsis: 1405.021 km

RAAN: 11.2701 deg

Eccentricy: 0.00042831

Argument of periapsis: 44.6715 deg

Mean anomaly: 113.9125 deg

Mean motion: 12.63543218 rev/day

Mean motion (dot): 0.00000031 rev/day2

B* drag term: 0.00011191037 1/REarth

Two-line elements (TLE)

Creation date: Oct. 28, 2025, 7:11 p.m.

Reference frame: TEME

Reference center: EARTH

Epoch: Oct. 28, 2025, 3:22 p.m. UTC

TLE line 0: 0 COSMOS 2043

TLE line 1: 1 20237U 89074F 25301.64043576 .00000031 00000-0 11191-3 0 9998

TLE line 2: 2 20237 82.5814 11.2701 0004283 44.6715 113.9125 12.63543218665655

Live tracking on map

Real-time ground track for satellite COSMOS 2043.

In-orbit conjunctions

There are no conjunctions computed for COSMOS 2043, at the moment. Check back to stay up to date, as we update our databases every day.

Go to all conjunctions

Associated space launch

Second generation store-dump military communications satellite

COSMOS 2043 was lifted into orbit during the mission ‘Tsiklon-3 | Strela-3 43 to 48’, on board a Tsiklon-3 space rocket.

The launch took place on Sept. 14, 1989, 9:49 a.m. from 32/1.

For more information about the launch, click the button.

Launch to space Tsiklon-3 | Strela-3 43 to 48
Tsiklon-3 | Strela-3 43 to 48

Agency: N/A

Status: Launch Successful

Launch date: Sept. 14, 1989, 9:49 a.m. UTC

Rocket: Tsiklon-3

Launch pad: 32/1

Location: Plesetsk Cosmodrome, Russian Federation

...

Latest news about this satellite

There are no fresh news available about this satellite. Check back as we update our databases every day.


Newsletter sign-up

Weekly statistics, charts and insights to help you stay on top of the space industry.